Showing default

EUTE 65W, 41382

Orbit data source: Space-Track

EUTE 65W, 41382 is a payload satellite owned by EutelsatSA (FR) in GEO that was launched on Wed, 09 Mar 2016 UTC via an ARIANE 5ECA launch vehicle from the French Guiana (FRGUI). Payloads include a variety of satellites, spacecraft, and rockets equipped with specific instruments for various scientific and technological missions. These include communications satellites like Starlink; space stations such as the ISS; scientific satellites like the Hubble; Earth observation satellites from companies like Planet Labs, Umbra, and HawkEye 360; GPS; miniature CubeSats for education and research; and military/defense satellites.

Loading next visibility...
EUTE 65W details
Identifier
41382, 2016-014A
Orbit
GEO
Last TLE update7 hours ago
Origin
Flag of FREutelsatSA (FR / EUTE)
ManufacturerSS/Loral (MDA)
MissionOperational Commercial Communications
Bus & MotorSSL-1300, R-4D?
Mass6,564 kg wet, ~3,500 kg dry
Launch date (UTC)
2016-03-09 (9 years ago)
Launch vehicle
ARIANE 5ECA
Launch site
French Guiana (FRGUI)
Object type
Payload
Rocket body
Debris
Shape & HBRBox + 2 Pan, 26 m
Radar Cross Section49.949 m², Large (>1 m²)

Expand to show TLE details & history

TLE from 7 hours ago
0 EUTE 65W
1 41382U 16014A   24361.53104999 -.00000247  00000-0  00000-0 0  9990
2 41382   0.0481 357.7388 0002021 279.2154 304.5493  1.00271783 32146
Epoch: 2024-12-26T12:44Z
Definitive object data (Epoch: 2024-12-26T12:44:42.719Z)
Latitude-0.04958°
Longitude-65.21076°
Altitude35,781.232 km
Speed3.075 km/s
True Right ascension14h 45m 54s
True Declination0° 02' 58"
Sunlit
Object was in daylight at TLE epoch
Visualization TLE readout
Latitude-0.03633°
Longitude40.28413°
Altitude35,780.627 km
Speed3.075 km/s
Apparent Right ascension22h 06m 36s
Apparent Declination-6° 04' 13"
Sunlit
Object is in daylight
Visualization observer readout
Local Sidereal Time19:08:06
Azimuth127.459° SE
Elevation28.356°
Doppler factor1
Orbital elements
Apogee altitude35,796.188 km
Perigee altitude35,779.144 km
Semi-major axis42,165.803 km
Eccentricity0.0002021
Inclination0.0481°
RAAN357.7388°
Arg. of periapsis279.2154°
True anomaly304.53022°
Mean anomaly304.5493°
Eccentric anomaly304.53976°
Mean motion0.25067 °/min
BSTARUnknown
Orbital period1436.15 mins
Loading historical data...
41382 neighbors
Authenticating...
Loading maneuver chart data...
Loading historical data...
Loading historical data...
Loading historical data...
Loading historical data...
Loading historical data...
Loading historical data...
Loading historical data...
Other satellites on launch #14 in the year 2016 (2016-03-09 UTC)

EUTE 65W Visibility forecast

Observer location: undefined°, undefined

Span
Click to sort rows by Start time (UTC) header in descending order
Start Az.
Max El. time (UTC)
Max El. Az.
Max El.
End time (UTC)
End Az.
1440 mins2024-12-26 19:45:23.539Z127.473° SE2024-12-27 05:09:23.539Z127.417° SE25.475°2024-12-27 19:45:23.539Z127.474° SE
|